En Direct

LFST 140700Z AUTO 01008KT CAVOK 04/M00 Q1029 NOSIG


TAF LFST 140500Z 1406/1506 33004KT CAVOK BECMG 1406/1409 03012KT PROB30 TEMPO 1412/1418 -SHRA FEW045TCU

Nos Avions

7 avions disponibles et entretenus par un atelier agréé, permettant tous types de vols (formation, promenade, voyage…)

l'école de pilotage

PPL, LAPL, Vol de nuit, SEP… Toutes ces formations sont dispensées par nos instructeurs bénévoles.
Formation Théorique Mermoz via la FFA

Notre Plateforme

Nous sommes basés à l’aéroport de Strasbourg-Entzheim (LFST) en plein coeur de l’Alsace qui permet de voyager rapidement outre Rhin, mais également de profiter des paysages variés

Notre Actualité

Retrouvez tous nos articles dans l’onglet Actualités

Nos réseaux

Suivez-nous sur les réseaux sociaux